Dewpoint
40 37 33 29 28 25 21 20 20 21 21 21 21 22 22 22 26 28 27 26 25 26 28 29 28 30 31 33 34 32 32 32 30 31 32 31 31 31 32 33 32 32 33
40 38 34 30 27 25 21 19 17 17 17 18 18 19 19 20 25 27 28 26 25 25 26 28 28 27 31 32 33 31 30 30 30 28 28 31 30 30 31 31 30 28 30
40 39 36 32 28 25 21 19 18 18 18 17 19 19 19 20 23 26 28 26 25 25 26 26 26 28 29 30 31 32 32 29 31 30 29 31 32 30 31 31 30 31 28
40 39 37 34 29 25 22 20 19 19 18 17 18 19 20 20 22 28 29 28 27 26 27 27 27 27 28 28 28 30 30 32 31 31 30 30 31 30 30 29 29 30 30
39 39 38 36 30 26 22 20 19 20 18 18 19 19 20 21 19 26 30 29 28 26 27 26 27 29 30 31 29 30 30 30 31 31 30 30 29 28 28 29 29 28 29
39 39 39 36 31 27 23 21 21 21 19 20 20 19 20 19 23 31 32 29 28 26 25 25 25 28 29 31 31 32 32 30 28 28 28 27 28 28 28 29 29 29 28
39 39 39 38 34 29 24 21 21 21 20 19 19 20 20 20 25 30 31 29 28 27 27 26 25 23 30 26 27 29 29 30 30 29 27 27 27 28 28 29 30 31 28
39 39 39 38 35 30 25 22 22 21 19 19 19 20 20 21 26 29 29 30 28 27 27 26 25 25 27 27 27 27 27 26 27 26 28 28 29 29 31 32 34 35 31
38 39 39 38 35 31 26 24 22 21 20 20 20 20 21 21 26 29 28 27 27 26 25 25 25 26 27 29 27 26 25 26 27 29 30 32 33 33 33 30 30 30 28
36 37 38 38 35 32 27 25 24 21 20 21 20 23 24 21 25 28 27 25 25 24 24 24 27 27 29 28 27 27 27 26 25 25 26 27 27 27 29 29 28 28 27
36 35 36 36 34 31 28 25 24 21 21 20 20 21 21 21 20 26 29 27 25 24 24 22 23 27 28 29 31 28 27 27 26 25 24 24 24 24 24 25 26 28 27
33 33 33 33 31 28 26 24 23 21 19 19 18 17 17 18 24 26 29 30 29 26 24 23 24 27 29 31 29 29 27 26 23 22 21 21 22 25 27 27 28 29 29
31 30 30 29 28 25 23 21 19 18 18 16 16 16 16 18 20 27 29 30 30 27 25 26 28 28 29 28 28 26 25 21 20 21 21 23 24 27 27 27 28 27 27
29 29 28 26 24 22 21 19 18 19 18 16 16 16 17 19 20 23 24 24 27 27 27 27 27 29 29 28 23 20 20 21 22 23 23 23 23 26 24 25 24 24 25
29 28 26 24 24 20 20 19 17 17 17 16 17 17 19 21 21 25 25 25 26 26 29 28 27 26 24 21 20 20 21 22 22 23 23 23 22 22 23 25 24 23 23
28 27 26 24 23 22 19 18 23 22 25 26 24 22 21 24 27 29 28 28 28 28 26 26 26 24 21 19 20 21 22 23 23 24 23 23 23 23 23 24 23 23 21
28 27 25 25 22 22 20 19 18 23 31 29 29 29 30 29 29 29 28 27 27 27 25 25 23 21 20 21 22 23 23 23 25 24 24 24 24 24 23 22 22 22 22
27 29 25 24 23 21 21 21 22 28 25 23 29 29 29 29 29 27 27 26 23 24 24 22 20 20 21 22 23 23 23 24 24 24 24 23 23 24 23 23 23 23 22
26 26 26 24 23 22 21 25 29 28 24 20 20 23 26 27 27 27 26 23 22 22 21 20 20 21 22 23 23 24 24 23 24 25 26 26 26 26 24 24 24 23 23
26 27 26 23 23 24 25 29 29 27 23 21 20 20 20 23 20 19 20 21 21 21 19 19 20 22 23 24 24 24 23 23 24 24 24 26 26 26 25 24 24 23 23
27 25 28 25 23 24 28 29 28 24 22 20 20 20 23 21 20 19 18 21 21 20 19 20 21 23 24 24 24 23 24 23 24 25 25 25 26 26 26 26 26 24 24
27 26 25 27 25 25 27 28 25 22 21 21 20 20 25 24 22 22 22 21 20 19 20 21 23 24 24 24 24 24 24 23 24 25 26 26 27 27 27 27 26 25 24
27 26 25 25 27 27 28 25 23 21 20 20 20 20 21 23 22 22 21 20 19 20 21 22 23 23 24 24 24 24 24 25 26 27 27 27 27 27 28 28 28 26 25
29 27 25 24 25 25 25 24 23 23 21 21 20 21 21 21 21 20 20 21 21 22 21 22 22 23 23 23 24 25 25 27 28 28 28 28 29 30 31 31 30 29 26
29 27 26 26 25 26 25 26 24 23 22 22 21 21 21 21 21 21 21 22 22 21 21 21 22 22 22 23 23 24 25 27 29 31 32 32 31 31 30 30 30 30 27
29 28 28 27 27 26 26 27 27 24 24 24 24 24 23 22 21 21 21 21 21 20 20 21 22 21 21 22 24 26 28 29 30 33 33 32 31 30 30 30 30 29 27
Lifted_Index
13 13 13 13 14 14 14 15 15 15 15 16 18 19 19 19 19 19 18 18 18 18 18 18 18 18 18 17 17 17 17 16 15 15 16 16 17 17 17 17 16 14 13
12 12 12 13 13 14 14 14 14 15 15 16 17 18 19 19 19 19 18 18 18 18 18 18 18 18 18 18 17 17 17 17 16 16 16 17 17 18 18 18 17 17 17
12 12 12 12 13 13 13 14 14 14 14 15 16 18 19 19 19 19 19 18 18 18 18 18 18 18 18 18 18 18 18 18 17 17 17 17 18 18 18 18 18 19 19
12 12 12 12 12 13 13 13 13 14 14 14 15 17 19 19 19 19 19 18 18 18 18 18 18 18 18 18 18 18 18 18 18 17 17 17 17 17 17 17 17 18 18
13 12 12 12 12 12 13 13 13 13 13 13 14 16 18 19 19 18 18 18 18 18 18 18 18 18 18 18 18 18 18 18 18 17 17 16 16 16 16 16 16 16 16
13 12 12 12 12 12 12 12 12 12 13 13 13 15 17 18 19 18 18 18 18 18 18 18 18 18 18 18 19 19 19 18 18 17 16 16 15 15 15 15 15 15 14
13 13 12 11 11 11 11 11 11 12 12 12 13 14 17 18 18 18 18 18 18 18 18 18 18 18 18 18 18 18 19 19 18 18 17 16 15 15 15 15 15 15 14
13 13 13 12 11 11 10 10 10 11 11 11 12 13 16 17 18 18 18 18 18 18 18 18 18 18 18 18 17 17 18 18 18 18 17 16 15 15 15 15 15 15 15
13 13 13 13 12 10 10 9 9 10 10 11 12 13 15 17 17 18 18 18 18 18 18 18 18 18 18 17 17 16 16 17 17 17 16 16 15 15 15 15 15 15 15
12 12 13 13 12 10 9 9 9 9 10 11 11 13 15 16 17 17 17 17 18 18 18 18 18 18 18 18 17 16 15 15 16 16 15 15 15 14 14 15 15 15 14
12 12 12 12 11 10 9 8 8 9 9 10 11 13 15 16 16 16 17 17 17 18 18 18 18 18 18 18 17 16 15 15 15 15 14 14 14 14 14 14 15 15 14
12 12 12 12 11 9 8 7 8 8 9 9 10 12 14 15 15 16 16 17 17 18 18 18 18 18 17 17 17 16 15 15 14 14 13 13 13 13 13 14 14 14 14
13 13 12 11 10 9 8 7 7 8 8 8 9 11 13 14 15 15 16 17 17 18 18 18 17 17 17 17 16 15 15 14 13 12 12 12 12 12 13 13 13 13 14
13 13 12 11 9 8 7 7 7 7 7 8 9 11 13 13 14 15 16 17 17 18 18 17 17 16 16 16 15 14 14 13 12 12 12 12 12 12 12 12 12 12 12
12 11 11 9 8 7 7 7 7 8 8 9 10 12 13 13 14 15 16 17 17 17 17 17 16 15 15 14 14 13 13 12 12 12 12 12 12 12 12 12 12 11 11
9 9 9 8 7 7 7 7 7 8 9 10 12 13 13 13 14 15 16 17 17 17 17 16 15 14 14 13 12 12 12 12 12 12 12 12 12 11 11 11 11 10 10
7 7 7 6 6 6 7 7 7 8 9 10 12 14 14 14 15 16 16 17 17 17 16 15 14 14 13 12 12 11 11 11 12 12 12 12 11 11 11 10 10 10 9
6 6 6 6 6 6 7 7 8 8 8 10 13 14 14 15 15 16 16 17 17 16 16 15 14 13 13 12 12 11 11 11 12 12 12 12 11 11 10 10 10 9 9
6 6 5 5 6 6 6 7 7 8 9 10 13 14 15 15 16 16 16 16 16 16 15 15 14 13 13 13 12 12 11 11 12 12 12 12 12 11 11 11 11 10 10
6 6 5 5 5 5 6 6 7 8 8 10 12 14 15 15 15 16 16 16 16 16 15 15 14 14 13 13 12 12 11 11 12 12 12 12 12 12 11 11 11 11 11
7 6 6 5 5 5 5 6 7 7 8 10 11 14 15 15 15 15 15 16 16 16 15 15 14 13 13 13 12 12 11 12 12 12 12 12 12 12 12 12 11 11 11
7 7 6 5 5 5 5 5 6 7 9 10 11 13 15 15 15 15 15 16 16 16 15 15 14 13 13 13 13 12 12 12 12 12 12 12 12 12 12 12 12 11 11
7 7 6 6 5 5 4 4 5 6 8 9 10 12 14 15 15 15 15 16 16 16 15 15 14 13 13 13 13 13 12 12 12 13 13 13 13 13 13 12 12 12 12
6 6 6 6 5 4 4 3 4 5 7 9 10 12 14 14 15 15 15 16 16 16 15 14 14 13 13 13 13 13 13 13 13 13 13 13 13 13 13 13 12 12 12
6 6 6 5 5 4 3 3 3 4 6 8 11 12 13 14 14 15 16 16 16 16 15 14 14 13 13 13 13 13 13 13 13 14 14 13 13 13 13 12 12 12 12
6 5 5 5 5 4 3 3 3 4 6 9 11 13 13 13 14 15 16 16 16 15 15 14 14 13 13 13 14 13 13 13 13 13 13 13 13 13 12 12 12 12 12